Location: Bessat
(45.8735°N, 1.9924°E)
Time: 20:49:56
(UTC+00:00)

Cosmos 1898 Rocket - Pass Details

Date: 11 May 2021
Orbit: 753 x 784 km, 74.0° (Epoch: 21 June)

Event Time Altitude Azimuth Distance (km) Brightness Sun altitude
Exits shadow 22:47:32 39° 235° (SW) 1,158 4.2 -24.5°
Maximum altitude 22:49:19 60° 295° (WNW) 896 3.9 -24.6°
Drops below altitude 10° 22:54:36 10° 15° (NNE) 2,348 6.8 -24.8°
Sets 22:57:03 0° 19° (NNE) 3,282 7.7 -24.9°
